User: anonymous   Login
Location: Stillwell
(40.4602°N, 82.0928°W)
Time: 02:33:37
(UTC-04:00)
Language:

Cosmos 2333 Rocket - Orbit

View from above orbital plane
View from above orbital plane
View from above satellite
View from above satellite

Ground track
Ground track

The orbit data is extracted from the following two-line orbital elements,

1 24298U 96051B   18113.47719537 -.00000142 +00000-0 -50548-4 0  9998
2 24298 070.8361 128.1086 0013295 080.8266 279.4358 14.12448662115371
Epoch (UTC): 23 April 2018 11:27:09
Eccentricity: 0.0013295
inclination: 70.8361°
perigee height: 841 km
apogee height: 860 km
right ascension of ascending node: 128.1086°
argument of perigee: 80.8266°
revolutions per day: 14.12448662
mean anomaly at epoch: 279.4358°
orbit number at epoch: 11537

The dashed part of the orbit path shows where the satellite is in the earth's shadow,  

DLR